Location: De Greiden
(52.9496°N, 5.9137°E)
Time: 00:35:45
(UTC+00:00)

SeaSat 1 - Pass Details

Date: 24 January 2021
Orbit: 744 x 747 km, 108.0° (Epoch: 26 February)

Event Time Altitude Azimuth Distance (km) Brightness Sun altitude
Exits shadow 17:00:38 - 29° (NNE) 2,978 5.1 -8.2°
Reaches altitude 10° 17:02:23 10° 26° (NNE) 2,276 4.5 -8.4°
Maximum altitude 17:07:12 55° 309° (NW) 898 3.1 -9.1°
Drops below altitude 10° 17:12:00 10° 233° (SW) 2,264 6.3 -9.8°
Sets 17:14:17 0° 229° (SW) 3,185 7.1 -10.1°
